Tracking 17694 objects as of 26-May-2016
HD Live streaming from Space Station
objects crossing your sky now

ARIANE 44L R/B

Track ARIANE 44L R/B now!


NORAD ID: 26696
Int'l Code: 2001-005C
Perigee: 317.8 km
Apogee: 32,337.3 km
Inclination: 7.4 °
Period: 567.2 minutes
Semi major axis: 22698 km
RCS: 23.3181 m2 (large)
Launch date: February 7, 2001
Source: France (FR)
Launch site: FRENCH GUIANA (FRGUI)

Note: This is a ROCKET BODY
Your satellite tracking list
Your tracking list is empty





NASA's NSSDC Master Catalog

Two Line Element Set (TLE):
1 26696U 01005C   16146.83748500 -.00000060  00000-0  27563-3 0  9991
2 26696   7.3565  36.2959 7053206 270.3689  16.2099  2.53866711133406
Source of the keplerian elements: AFSPC

N2YO: 586